Regional Weather Roundup
Issued by NWS Burlington, VT

Home | Current Version | Previous Version | Text Only | Print | Product List | Glossary On
Versions: 1 2 3 4 5 6 7 8 9 10 11 12 13 14 15 16 17 18 19 20 21 22 23 24 25 26 27 28 29 30 31 32 33 34 35 36 37 38 39 40 41 42 43 44 45 46 47 48 49 50
102
ASUS41 KBTV 220430
RWRBTV
VERMONT REGIONAL WEATHER ROUNDUP
NATIONAL WEATHER SERVICE BURLINGTON VT
1100 PM EST SAT JAN 21 2017

NOTE: "FAIR" INDICATES FEW OR NO CLOUDS BELOW 12,000 FEET WITH NO
SIGNIFICANT WEATHER AND/OR OBSTRUCTIONS TO VISIBILITY.

* THESE REPORTS ARE NOT UNDER NWS QUALITY CONTROL AND/OR DO NOT
  REPORT WEATHER SUCH AS PRECIPITATION AND FOG.

VTZ001>019-220500-
_____VERMONT_____


CITY           SKY/WX    TMP DP  RH WIND       PRES   REMARKS
BURLINGTON     CLOUDY    40  38  93 CALM      29.78R
MONTPELIER     CLOUDY    35  34  96 S3        29.79R
MORRISVILLE    CLOUDY    33  33 100 CALM      29.78R FOG
ST. JOHNSBURY*   N/A     35  34  96 MISG      29.75S
LYNDONVILLE*   FOG       33  33  99 CALM      29.77R VSB 1/4
MIDDLEBURY*    CLOUDY    37  37 100 CALM      29.78R
RUTLAND*       CLOUDY    38  36  92 W3        29.76F
SPRINGFIELD    CLOUDY    31  29  92 CALM      29.77S
HIGHGATE*      CLOUDY    35  35 100 CALM      29.79R FOG
NEWPORT*       CLOUDY    34  33  98 CALM      29.76R FOG
BENNINGTON     FOG       34  33  96 S5        29.76S VSB 1/2 WCI  30
SUTTON*          N/A     34 N/A N/A MISG        N/A
ISLAND POND*     N/A     36 N/A N/A W3          N/A
GALLUP MILLS*    N/A     32 N/A N/A MISG        N/A
UNION VILLAGE*   N/A     34 N/A N/A MISG        N/A
MT. MANSFIELD*   N/A     30 N/A N/A W29         N/A  WCI  15

_____LAKE CHAMPLAIN_____


CITY           SKY/WX    TMP DP  RH WIND       PRES   REMARKS
BURTON ISLAND*   N/A     36  36 100 E1          N/A
COLCHESTER RF*   N/A     37  37 100 N1          N/A
DIAMOND ISL*     N/A     39  37  93 S2          N/A

$$

NYZ007-026>031-035-052-083-087-220500-
_____NORTHERN NEW YORK_____


CITY           SKY/WX    TMP DP  RH WIND       PRES   REMARKS
PLATTSBURGH    FOG       36  35  96 CALM      29.78S VSB 1/2
SARANAC LAKE   FOG       36  34  92 CALM      29.73S VSB 1/4
MASSENA        CLOUDY    36  35  96 CALM      29.79S FOG
OGDENSBURG*    CLOUDY    37  37 100 NE3       29.77F FOG
POTSDAM*       FOG      N/A N/A N/A CALM      29.78F VSB 1/2
WATERTOWN      CLOUDY    37  37 100 NE7       29.74F FOG     WCI  32
FT DRUM        FOG       36  36 100 NE7       29.72F VSB 3/4 WCI  30
ALBANY         CLOUDY    41  39  93 CALM      29.79R
GLENS FALLS    PTCLDY    30  27  88 CALM      29.78S FOG

$$
NHZ002-005-011-220500-
_____NEW HAMPSHIRE_____


CITY           SKY/WX    TMP DP  RH WIND       PRES   REMARKS
LEBANON        CLOUDY    35  33  92 CALM      29.76R
KEENE          FOG       28  28 100 CALM      29.78R VSB 1/2
MT WASHINGTON  MOCLDY    30  27  86 NW44G53     N/A  WCI  13
PLYMOUTH       CLOUDY    38  36  92 NE3       29.74S
WHITEFIELD     CLOUDY    35  32  88 CALM      29.74S FOG

$$

_____REGIONAL QUEBEC LOCATIONS_____


CITY           SKY/WX    TMP DP  RH WIND       PRES   REMARKS
MONTREAL       CLOUDY    34  34 100 NW3       29.79R FOG
QUEBEC CITY    CLOUDY    32  27  80 NE3       29.76F
SHERBROOKE     FOG       32  32 100 W2        29.75R VSB 3/4

_____REGIONAL ONTARIO LOCATIONS_____


CITY           SKY/WX    TMP DP  RH WIND       PRES   REMARKS
OTTAWA         CLOUDY    34  34 100 CALM      29.79R FOG

______KEY______
VSB  - VISIBILITY IN MILES
WCI  - WIND CHILL INDEX
HX   - HEAT INDEX
$$
NNNN




USA.gov is the U.S. government's official web portal to all federal, state and local government web resources and services.